Flag for France Weather past 2 weeks in Orléans, France

Now
59 °F

Clear.


Feels Like: 59 °F
Forecast: 46 / 65 °F
Wind: 5 mph from Northwest

Location: Orleans Airport

Current Time: Sep 3, 2015 at 10:11:29 PM

Latest Report: Sep 3, 2015 at 9:30 PM


Visibility: 10 mi

Pressure: 30.04 "Hg

Humidity: 68%

Dew point: 48 °F

Location of OrléansLocation

Historic Weather in Orléans — Graph

°F

Orléans temperature yesterday

Maximum temperature yesterday: 70 °F (at 3:30 PM)
Minimum temperature yesterday: 48 °F (at 5:30 AM)
Average temperature yesterday: 59 °F

Past Weeks' High & Low Weather Summary

 TemperatureHumidityPressure
High93 °F (Aug 30, 4:30 PM)100% (Aug 27, 10:00 AM)30.21 "Hg (Aug 27, 10:00 AM)
Low46 °F (Sep 3, 7:00 AM)27% (Aug 22, 4:00 PM)29.47 "Hg (Aug 24, 11:00 AM)
Average68 °F69%29.96 "Hg
* Reported Aug 19 9:00 PM — Sep 3 9:00 PM, Orléans, Weather by CustomWeather, © 2015

Note: Actual official high and low records may vary slightly from our data, if they occured in-between our weather recording intervals... More about our weather records

Advertising

Orléans weather history for previous 24 hours

 ConditionsComfort  
Time TempWeatherWind HumidityBarometerVisibility
9:00 PM
Thu, Sep 3
59 °FSunny.6 mph63%30.04 "Hg10 mi
8:30 PM59 °FSunny.7 mph63%30.04 "Hg10 mi
8:00 PM63 °FSunny.8 mph56%30.01 "Hg10 mi
7:30 PM63 °FSunny.10 mph52%30.01 "Hg10 mi
7:00 PM64 °FSunny.14 mph49%30.01 "Hg10 mi
6:30 PM64 °FSunny.9 mph46%30.01 "Hg10 mi
6:00 PM64 °FSunny.9 mph46%30.01 "Hg10 mi
5:30 PM66 °FPassing clouds.10 mph40%30.01 "HgN/A
5:00 PM64 °FPassing clouds.7 mph46%30.01 "HgN/A
4:30 PM68 °FPassing clouds.8 mph43%30.01 "HgN/A
4:00 PM68 °FSunny.12 mph40%30.01 "Hg10 mi
3:30 PM66 °FPassing clouds.12 mph46%30.04 "HgN/A
3:00 PM66 °FPassing clouds.8 mph46%30.04 "HgN/A
2:30 PM66 °FPassing clouds.8 mph46%30.04 "HgN/A
2:00 PM64 °FPassing clouds.8 mph43%30.04 "HgN/A
1:30 PM63 °FScattered clouds.8 mph52%30.04 "HgN/A
1:00 PM63 °FPassing clouds.8 mph52%30.04 "HgN/A
12:30 PM63 °FScattered clouds.5 mph52%30.04 "HgN/A
12:00 PM63 °FPassing clouds.3 mph56%30.04 "HgN/A
11:30 AM61 °FScattered clouds.6 mph63%30.04 "HgN/A
11:00 AM61 °FPassing clouds.5 mph63%30.04 "HgN/A
10:30 AM59 °FPassing clouds.5 mph72%30.04 "HgN/A
10:00 AM57 °FPassing clouds.5 mph77%30.04 "HgN/A
9:30 AM55 °FScattered clouds.3 mph82%30.04 "HgN/A
9:00 AM54 °FPassing clouds.3 mph88%30.04 "HgN/A
8:30 AM50 °FPartly sunny.3 mph94%30.04 "HgN/A
8:00 AM48 °FPassing clouds.2 mph94%30.04 "HgN/A
7:30 AM46 °FPassing clouds.6 mph93%30.04 "HgN/A
7:00 AM46 °FClear.3 mph93%30.04 "Hg10 mi
6:30 AM48 °FClear.5 mph87%30.04 "Hg10 mi
5:30 AM48 °FPassing clouds.2 mph94%30.04 "HgN/A
5:00 AM48 °FClear.6 mph94%30.04 "Hg10 mi
4:30 AM50 °FClear.6 mph88%30.04 "Hg10 mi
4:00 AM52 °FClear.7 mph88%30.04 "Hg10 mi
3:30 AM52 °FClear.7 mph88%30.04 "Hg10 mi
3:00 AM52 °FClear.7 mph88%30.04 "Hg10 mi
2:30 AM54 °FClear.8 mph82%30.04 "Hg10 mi
2:00 AM55 °FClear.10 mph77%30.04 "Hg10 mi
1:30 AM55 °FClear.7 mph77%30.04 "Hg10 mi
1:00 AM55 °FClear.7 mph77%30.04 "Hg10 mi
11:30 PM
Wed, Sep 2
57 °FClear.7 mph77%30.04 "Hg10 mi
11:00 PM57 °FClear.3 mph77%30.04 "Hg10 mi
10:30 PM57 °FClear.6 mph72%30.04 "Hg10 mi
10:00 PM59 °FClear.7 mph68%30.04 "Hg10 mi
Weather by CustomWeather, © 2015

See weather overviewHow to use our weather pages